Location: Castetpugon
(43.5584°N, 0.2304°W)
Time: 14:05:14
(UTC+00:00)

Daily predictions for brighter satellites

Satellite Brightness Start Highest point End
(mag) Time Altitude Azimuth Time Altitude Azimuth Time Altitude Azimuth
Cosmos 2315 Rocket 4.2 20:13:09 10° N 20:19:31 63° E 20:25:48 10° SSE
Cosmos 2322 Rocket 2.8 20:14:26 10° NNW 20:20:01 58° WSW 20:25:35 10° S
COSMOS 2455 3.8 20:15:43 10° SSE 20:20:39 27° ESE 20:25:38 10° NE
Cosmos 2333 4.3 20:19:14 10° NNW 20:25:03 88° ENE 20:30:51 10° SSE
Cosmos 2297 Rocket 3.9 20:22:54 10° SE 20:25:34 14° E 20:28:14 10° ENE
Cosmos 1455 3.9 20:23:41 10° NNE 20:26:00 16° ENE 20:28:18 10° ESE
Okean 1-7 4.1 20:23:27 10° SSE 20:27:05 27° E 20:30:43 10° NNE
Meteor 1-23 Rocket 4.5 20:23:11 10° SSW 20:28:53 80° W 20:34:40 10° N
SeaSat 1 4.2 20:25:48 10° E 20:29:25 21° NE 20:33:01 10° N
Okean 3 3.7 20:27:58 10° S 20:31:59 50° E 20:36:02 10° NNE
Cosmos 2219 Rocket 2.3 20:28:06 10° NNW 20:33:49 76° ENE 20:39:29 10° SSE
Cosmos 1758 3.4 20:30:12 10° N 20:34:09 80° W 20:38:06 10° S
Okean-O 2.7 20:31:41 10° SSE 20:36:05 84° WSW 20:40:31 10° NNW
Cosmos 1862 Rocket 3.5 20:34:50 10° S 20:39:14 77° E 20:43:42 10° NNE
Cosmos 1356 Rocket 3.9 20:35:26 10° SSW 20:39:35 66° W 20:43:47 10° N
Okean O Rocket 3.0 20:38:37 10° SSW 20:42:40 37° W 20:46:45 10° NNW
USA 245 4.2 20:40:34 11° SE 20:44:37 49° ENE 20:49:44 10° N
Delta 2 Rocket 4.4 20:44:12 10° SSW 20:46:23 17° S 20:47:39 14° SE
CZ-4 R/B 4.3 20:45:09 10° WSW 20:46:50 12° W 20:48:31 10° WNW
CZ-4C R/B 2.2 20:44:39 10° S 20:48:39 39° ESE 20:53:29 10° NE
Cosmos 1242 Rocket 3.0 20:47:11 15° SE 20:48:49 25° E 20:51:06 10° NE
Ariane Rocket 3.7 20:44:24 11° SE 20:48:53 41° ENE 20:53:38 10° N
Cosmos 2228 Rocket 3.7 20:44:28 10° SSW 20:48:58 62° W 20:53:31 10° N
Meteor 2-10 Rocket 4.3 20:44:21 10° NNW 20:49:36 53° W 20:54:36 10° S
Meteor 1-4 Rocket 2.0 20:46:42 10° S 20:49:41 89° NW 20:52:42 10° N
MOS 1 4.5 20:44:31 10° S 20:50:09 74° WSW 20:55:49 10° NNW
MetOp-B 4.2 20:45:30 10° SSE 20:50:52 88° WSW 20:56:16 10° NNW
Terra 2.1 20:49:49 12° SSE 20:54:02 54° ENE 20:58:39 10° N
Meteor 2-20 4.5 20:50:40 10° N 20:56:51 87° E 21:02:59 10° S
Cosmos 1707 Rocket 4.3 20:54:01 10° SSW 20:58:21 55° W 21:02:42 10° N
MOS 1 Rocket 3.8 20:54:47 13° SSE 20:59:25 54° ENE 21:04:24 10° N
Cosmos 839 Rocket 4.2 20:56:23 10° NW 21:02:59 70° WSW 21:08:24 13° SSE
Cosmos 2360 Rocket 3.6 20:59:05 10° NW 21:04:04 32° WSW 21:09:00 10° SSW
ARGOS Delta rocket 4.3 21:01:05 10° S 21:05:21 54° W 21:09:41 10° NNW
Cosmos 1953 2.3 21:02:59 10° N 21:06:46 58° E 21:09:25 18° SSE
COSMOS 2428 2.8 21:02:45 10° NNW 21:08:28 68° ENE 21:12:54 17° SE
USA 234 3.7 21:03:01 10° ENE 21:08:56 36° SE 21:14:49 10° SSW
SPOT 5 3.3 21:05:18 10° S 21:09:33 53° W 21:14:01 10° NNW
Cosmos 1733 Rocket 4.2 21:09:33 10° NNW 21:13:44 41° W 21:17:53 10° SSW
IRS-1C Rocket 4.4 21:08:39 10° S 21:13:51 67° WSW 21:19:06 10° NNW
BREEZE-M DEB (TANK) 4.3 21:13:13 10° WNW 21:15:31 34° N 21:19:57 10° ENE
BlueWalker 3 4.3 21:18:01 10° WNW 21:21:10 25° NNW 21:24:19 10° NE
ERS-1 Rocket 3.3 21:21:23 13° S 21:25:48 64° WSW 21:30:49 10° NNW
Cosmos 1315 Rocket 3.6 21:22:25 10° SSW 21:26:18 52° WNW 21:30:13 10° N
SL-4 R/B 2.1 21:26:28 10° WNW 21:30:17 60° SW 21:32:20 27° SE
SL-08 R/B 4.4 21:25:09 10° S 21:31:14 86° E 21:37:23 10° N
Cosmos 2084 Rocket 3.3 21:28:05 10° SSW 21:32:25 80° SE 21:36:36 10° NE
Cosmos 1408 2.8 21:32:50 31° ESE 21:33:16 33° E 21:36:00 10° NNE
Cosmos 773 Rocket 4.5 21:31:02 10° N 21:36:02 47° ENE 21:39:00 23° SE
Cosmos 1908 Rocket 3.6 21:32:34 10° NNW 21:36:53 74° W 21:39:43 21° S
Cosmos 2242 Rocket 4.3 21:35:52 25° SE 21:37:51 38° E 21:42:05 10° NNE
BREEZE-M DEB (TANK) 2.3 21:38:39 10° WNW 21:40:47 60° SSW 21:41:58 33° SE
Cosmos 1782 Rocket 3.6 21:36:43 10° N 21:41:01 62° E 21:43:08 28° SSE
Cosmos 1709 Rocket 4.5 21:38:03 22° SSE 21:41:48 44° E 21:47:44 10° NNE
Cosmos 1570 Rocket 4.5 21:39:20 10° NNW 21:44:34 56° WSW 21:48:10 20° S
Cosmos 1300 Rocket 3.7 21:40:23 10° N 21:44:39 55° E 21:46:34 30° SE
SL-16 R/B 4.1 21:41:32 10° N 21:45:41 20° NE 21:49:49 10° E
Cosmos 2237 Rocket 2.5 21:41:29 10° NNW 21:47:04 56° ENE 21:50:16 25° SE
NOSS 3-2 (A) 4.3 21:48:36 21° ESE 21:49:02 22° ESE 21:53:13 10° ENE
Cosmos 2227 Rocket 2.9 21:47:45 26° SSE 21:50:02 36° ESE 21:55:09 10° NE
Landsat 4 4.3 21:53:29 26° SSW 21:55:02 43° W 21:58:19 10° NNW
SJ 16-02 4.4 21:54:06 10° W 21:56:08 13° NW 21:58:11 10° NNW
Cosmos 1455 3.6 21:57:23 10° NNW 22:00:27 28° W 22:02:27 17° SW
EXPRESS MD2 3.3 21:59:07 10° NW 22:01:19 32° NNE 22:01:35 31° NE
Cosmos 1980 3.7 21:56:06 10° NNW 22:01:48 77° ENE 22:04:42 30° SE
Meteor 2-5 Rocket 4.1 21:59:20 28° SSE 22:02:06 48° E 22:07:38 10° NNE
Spot 2 Rocket 4.5 21:58:38 16° SSW 22:02:17 40° W 22:07:05 10° NNW
NOSS 0 Rocket 4.1 21:57:10 10° NNW 22:03:24 70° WSW 22:06:54 27° S
Cosmos 1777 Rocket 4.0 22:01:00 25° S 22:04:07 68° ESE 22:09:22 10° NNE
GP-B 3.0 22:00:32 10° N 22:04:58 80° E 22:06:48 35° S
ARIANE 5 R/B 3.6 22:03:45 26° ESE 22:05:17 34° ENE 22:09:13 10° N
Landsat 5 3.6 22:01:20 10° N 22:05:30 74° WNW 22:08:06 23° SSW
Cosmos 1825 4.1 22:06:40 14° ENE 22:06:40 14° ENE 22:08:06 10° NE
COSMOS 2455 3.6 22:00:22 10° SW 22:06:14 54° NW 22:12:10 10° NNE
SeaSat 1 2.6 22:04:02 30° S 22:06:24 67° WSW 22:11:19 10° NNW
Cosmos 2297 Rocket 2.2 22:03:21 11° SSW 22:08:46 85° WNW 22:14:27 10° NNE
Cosmos 1174 3.8 22:05:17 10° NNW 22:09:56 78° ENE 22:11:05 44° SE
Cosmos 1703 3.1 22:10:39 51° SSE 22:11:21 64° E 22:14:59 10° NNE
MetOp-A 4.1 22:09:42 30° S 22:12:22 76° WSW 22:17:33 10° NNW
Cosmos 1503 Rocket 4.1 22:11:46 18° SSW 22:15:47 81° WNW 22:21:06 10° NNE
Cosmos 2219 Rocket 4.4 22:13:44 10° WNW 22:17:02 16° W 22:20:18 10° SW
SL-23 DEB 4.3 22:21:15 10° WSW 22:25:01 82° NNW 22:31:21 10° ENE
Cosmos 2219 3.8 22:23:58 33° SE 22:25:11 37° ESE 22:30:17 10° NE
Cosmos 1461 4.4 22:26:32 21° E 22:26:32 21° E 22:28:29 10° ENE
CENTAUR R/B 2.3 22:22:28 24° SSW 22:25:58 70° ESE 22:32:43 10° NE
Cosmos 371 Rocket 4.4 22:21:34 10° SW 22:26:08 43° WNW 22:30:45 10° N
Cosmos 2263 Rocket 3.2 22:27:07 27° ESE 22:27:45 27° ESE 22:32:22 10° NE
Cosmos 1892 3.5 22:31:14 32° E 22:31:14 32° E 22:34:06 10° NNE
Terra 4.1 22:28:56 10° SW 22:31:57 17° W 22:34:59 10° NW
Cosmos 2151 Rocket 4.1 22:28:40 10° N 22:32:54 45° ENE 22:33:47 39° ESE
Meteor 1-24 Rocket 3.6 22:32:43 32° S 22:35:27 90° WNW 22:41:00 10° N
CZ-4C R/B 3.8 22:32:57 10° W 22:37:06 31° NW 22:42:11 10° NNE
Okean 2 Rocket 3.6 22:33:00 10° N 22:37:20 46° ENE 22:38:18 39° ESE
ALOS 2 3.7 22:46:36 28° E 22:47:40 32° ENE 22:51:35 10° N
Cosmos 1898 Rocket 4.5 22:48:08 29° ESE 22:48:31 29° E 22:52:55 10° NE
Cosmos 292 Rocket 4.4 22:49:43 38° ESE 22:50:02 38° ESE 22:54:29 10° NE
Cosmos 405 Rocket 2.6 22:47:57 10° NNW 22:51:43 68° W 22:51:59 64° SW
USA 234 3.5 22:45:43 10° NE 22:52:14 72° NW 22:58:43 10° WSW
H-2A R/B 4.2 22:55:32 10° ENE 22:57:02 13° E 22:57:02 13° E
PSLV R/B 3.8 22:53:45 10° N 22:57:44 81° WNW 22:58:17 65° SSW
USA 281 3.2 22:56:14 35° SE 22:59:14 78° ENE 23:05:50 10° NNW
Cosmos 2074 Rocket 4.1 22:58:51 40° SSE 23:00:58 62° E 23:07:06 10° NNE
Aureole 1 Rocket 3.2 23:05:07 50° ESE 23:05:07 50° ESE 23:09:50 10° NNE
Cosmos 990 Rocket 3.9 23:04:48 45° SSW 23:06:24 88° WNW 23:11:34 10° NNE
Cosmos 2181 Rocket 3.9 23:00:51 10° N 23:07:01 83° W 23:09:14 42° S
CZ-2C R/B 4.4 23:03:07 10° N 23:07:23 48° WNW 23:09:06 31° SW
TIMED 4.5 23:08:04 61° ESE 23:08:12 62° ESE 23:12:28 10° NNE
Cosmos 2221 Rocket 3.5 23:07:38 63° SSW 23:08:19 87° W 23:12:46 10° N
Cosmos 1328 4.0 23:09:17 54° E 23:09:17 54° E 23:12:55 10° NNE
Okean 1 Rocket 3.0 23:09:12 10° N 23:13:35 71° E 23:14:06 63° SE
Cosmos 1295 Rocket 4.5 23:12:40 44° SSE 23:14:37 69° E 23:20:45 10° NNE
Cosmos 2098 Rocket 4.3 23:09:55 10° NNW 23:16:05 52° W 23:18:14 34° SW
Sich 1 Rocket 3.6 23:12:16 10° NNW 23:16:38 68° W 23:17:10 60° SW
Cosmos 1025 Rocket 3.0 23:23:54 61° ESE 23:24:04 62° E 23:28:19 10° NNE
Cosmos 372 Rocket 4.1 23:26:39 51° SE 23:27:22 56° ESE 23:32:28 10° NNE
SL-16 R/B 2.2 23:24:44 10° NNW 23:30:26 75° WSW 23:31:50 51° S
Cosmos 2237 Rocket 3.7 23:26:24 10° NW 23:30:39 22° W 23:32:05 20° WSW
Cosmos 1975 Rocket 3.9 23:31:37 37° E 23:31:45 37° E 23:35:50 10° NNE
H-2A R/B 2.8 23:32:04 51° WSW 23:32:19 52° W 23:36:25 10° NNW
Cosmos 2227 Rocket 3.5 23:29:29 13° WSW 23:34:01 36° NW 23:39:15 10° N
Cosmos 1943 4.1 23:30:27 10° NNW 23:35:45 41° ENE 23:38:26 25° ESE
Cosmos 2082 3.6 23:36:07 47° SSW 23:37:50 86° WNW 23:43:29 10° NNE
NOSS 3-2 (A) 3.7 23:35:54 23° WSW 23:39:05 58° NW 23:45:09 10° NNE
Cosmos 1825 3.4 23:40:07 30° WNW 23:40:07 30° WNW 23:43:08 10° NNW
Nadezhda 3 Rocket 3.9 23:35:14 10° N 23:41:30 86° E 23:43:26 47° SSE
ARIANE 5 R/B 4.2 23:41:12 22° WSW 23:41:43 23° W 23:45:12 10° NW
Cosmos 1455 Rocket 3.2 23:37:20 10° N 23:41:45 59° E 23:42:11 56° ESE
Spot 4 4.4 23:49:08 40° WSW 23:49:47 42° W 23:54:22 10° NNW
NOSS 3-2 (C) 3.0 23:49:28 53° SSW 23:50:47 83° SE 23:56:51 10° NE
